Wind_Speed
25 25 25 23 21 19 18 18 18 18 18 20 22 22 20 20 21 23 24 24 24 23 23 22 21 20 20 19 18 17 15 14 12 11 10 9 8 7 6 5 4 5 5 5 5 5 5 5 5 5 5 5 5 5 5 5 5 5 5 5 5 5 5
27 26 26 24 22 20 19 19 19 19 19 19 22 23 22 21 22 23 25 25 24 24 23 22 21 20 20 19 18 17 15 14 12 11 9 8 7 6 5 4 3 3 4 4 4 4 4 4 5 5 5 5 5 5 5 5 5 5 5 5 5 5 5
28 28 27 25 24 22 21 20 20 20 20 19 21 23 23 23 22 23 24 25 25 24 23 22 21 20 19 19 17 16 15 14 12 11 9 8 7 6 4 3 2 2 2 2 2 2 3 3 4 5 5 5 5 5 5 5 5 5 5 5 6 6 6
27 28 28 27 26 25 23 21 21 21 21 21 21 23 24 24 23 22 23 24 25 24 23 22 21 20 19 18 17 16 15 13 12 11 10 9 8 7 6 4 3 2 1 1 1 2 3 3 4 5 6 6 6 6 6 6 6 6 6 6 6 6 6
28 28 29 29 28 27 25 23 22 22 22 23 22 22 24 24 23 23 22 23 24 24 23 21 20 20 19 18 17 16 15 14 13 12 11 10 9 8 7 6 5 4 3 3 2 2 3 4 5 6 7 7 8 7 7 7 7 7 7 6 6 6 6
30 28 29 30 29 27 26 24 23 23 23 24 24 23 23 24 24 24 23 23 24 23 23 23 22 21 20 19 18 18 17 16 15 14 13 12 11 10 9 8 8 6 5 5 4 4 4 4 5 7 8 9 9 9 9 8 8 8 8 7 7 7 6
33 29 28 29 29 28 28 26 25 25 25 25 25 24 23 24 25 25 25 24 24 24 24 24 24 23 22 21 21 20 19 18 17 16 15 14 13 12 11 10 10 8 7 7 6 5 5 5 6 7 9 10 10 10 10 10 10 9 9 9 8 8 7
36 33 30 29 30 29 29 29 27 27 27 26 25 25 24 23 24 25 27 27 26 26 26 26 26 25 24 23 23 22 21 20 19 18 17 16 15 14 13 12 11 10 9 8 8 7 7 7 7 8 9 10 11 11 11 11 11 11 10 9 9 9 8
39 37 34 31 32 31 29 30 29 27 27 27 26 25 25 24 24 25 26 27 27 27 27 27 27 26 25 25 24 23 22 21 20 19 19 18 17 16 15 14 13 12 11 10 10 9 9 8 8 8 10 11 11 12 12 12 12 11 11 11 10 10 9
41 38 36 34 34 33 31 30 31 29 28 28 27 27 26 25 25 25 25 26 27 28 28 28 27 27 26 26 25 24 23 23 22 21 21 20 19 18 17 16 15 14 13 12 11 10 10 10 10 10 10 11 12 12 12 12 12 12 12 11 11 11 10
43 39 37 36 34 33 33 32 31 30 28 28 28 27 27 26 26 25 25 26 26 27 27 27 27 27 27 26 25 25 24 24 23 23 22 21 20 19 18 17 16 15 14 13 12 12 11 11 11 11 11 12 12 13 13 13 13 13 13 12 12 12 11
43 42 38 36 33 32 34 33 32 31 30 29 28 28 28 28 27 26 26 26 26 25 25 26 26 26 26 25 25 25 24 24 24 24 23 22 21 20 19 18 17 15 15 14 14 13 13 13 13 13 13 13 13 14 14 14 14 14 14 13 13 13 12
37 43 41 36 33 32 34 34 34 33 32 31 30 29 29 29 28 28 27 27 26 26 25 25 25 25 25 24 24 24 24 24 23 23 23 22 21 20 19 18 18 17 17 16 16 16 15 15 14 14 14 14 15 15 15 15 16 16 16 15 15 15 14
26 35 40 38 35 34 35 36 36 35 34 33 32 31 31 30 30 29 28 27 26 26 26 26 26 26 25 24 24 24 23 23 23 23 22 22 21 20 20 20 19 19 19 18 18 18 18 17 16 16 16 16 16 17 17 18 18 18 18 17 17 17 16
21 25 32 38 41 38 37 37 37 36 36 35 34 33 32 31 30 30 29 28 27 27 27 26 26 26 26 25 25 24 24 24 24 24 23 23 23 22 21 21 21 21 20 20 20 20 19 19 18 18 18 17 18 18 19 19 19 19 19 18 18 18 18
23 23 25 32 41 43 40 39 38 38 38 37 36 34 32 31 30 30 29 29 29 29 28 28 27 27 26 26 26 26 26 25 25 25 25 25 24 24 23 22 21 21 21 21 21 21 21 21 21 20 20 19 19 19 19 20 19 19 19 20 20 20 19
23 26 25 27 36 43 43 40 38 37 37 37 36 35 33 33 32 31 30 31 31 30 30 30 29 28 28 28 28 28 27 26 26 26 26 26 26 25 24 23 22 22 21 21 21 21 22 22 22 22 22 21 21 20 20 20 19 19 21 22 22 22 22
21 25 27 28 32 40 44 42 39 37 36 36 35 34 34 34 34 33 32 32 32 31 31 31 30 30 30 30 31 30 29 28 28 27 27 27 27 27 26 25 24 23 23 23 23 23 23 23 23 23 23 23 22 21 21 20 19 20 23 23 21 22 23
19 23 27 29 31 38 44 43 39 36 35 34 34 34 34 34 35 35 35 34 33 32 31 32 31 31 31 32 32 31 30 30 30 29 29 29 28 28 28 27 26 26 26 26 25 25 25 25 24 24 25 24 24 23 23 22 21 23 25 24 23 23 23
17 24 29 32 34 40 46 44 39 38 37 35 35 35 34 34 35 35 36 36 35 34 34 34 33 32 32 33 33 32 31 32 32 32 31 31 31 31 30 30 29 29 28 28 28 28 27 27 27 26 26 26 25 25 24 23 24 25 26 25 25 25 24
11 20 30 37 41 45 47 43 40 41 39 36 35 34 34 35 35 36 36 37 36 36 35 35 35 34 34 34 34 33 33 33 33 33 33 32 32 32 32 32 32 31 31 31 31 31 30 30 29 28 28 28 28 27 26 26 27 28 27 26 26 26 26
7 12 23 37 47 50 48 44 41 41 41 39 38 37 36 36 36 36 36 36 37 37 37 37 36 36 36 35 35 34 33 33 33 33 33 33 32 32 33 33 33 33 33 32 32 32 32 32 32 31 31 31 31 31 30 29 30 31 30 29 29 28 29
7 7 13 30 49 52 46 43 43 42 41 41 40 40 39 37 36 35 35 36 37 37 37 38 37 37 36 36 35 34 33 33 33 33 34 34 33 33 33 33 34 33 33 33 33 33 32 33 34 34 34 34 33 32 32 31 33 34 33 33 32 32 32
9 7 5 17 38 46 41 37 40 41 41 40 39 39 39 37 35 35 35 35 36 37 37 38 38 37 36 35 35 34 34 34 34 34 34 34 33 33 34 34 33 33 33 34 34 34 34 34 35 35 35 35 34 34 33 32 34 35 35 35 34 34 34
9 9 6 6 18 27 25 23 27 31 34 36 37 38 38 37 36 35 36 36 36 37 38 39 39 37 36 35 35 34 34 35 35 34 35 35 33 32 32 32 33 34 34 35 35 34 34 35 35 34 34 35 36 35 34 33 34 35 35 35 35 35 35
10 10 10 8 8 11 12 12 14 15 17 21 25 28 33 36 36 36 36 36 37 38 39 39 39 38 37 37 38 37 36 36 36 35 36 36 36 34 32 33 34 35 35 36 37 36 35 36 36 35 34 35 35 35 33 33 33 34 33 34 34 35 35
10 11 11 11 10 9 9 9 9 8 8 10 14 18 23 28 33 36 38 38 39 40 42 43 42 41 40 40 41 40 39 38 38 36 36 38 39 37 35 36 38 39 39 39 39 39 39 38 38 36 36 35 35 35 34 33 33 33 33 33 34 35 36
8 11 13 13 12 11 11 10 9 7 6 7 9 11 14 18 23 29 35 38 40 41 43 46 46 44 42 43 44 43 42 41 40 39 40 42 43 41 39 39 40 42 43 43 41 41 42 41 41 40 39 38 37 37 36 35 35 34 35 35 35 37 38
9 9 11 12 12 12 12 12 11 11 10 9 10 10 12 14 15 16 20 25 30 35 38 42 46 47 45 44 44 43 43 43 42 41 43 44 44 44 43 44 45 46 46 44 42 42 43 43 43 42 41 41 40 39 39 39 38 38 39 38 38 38 39
11 11 10 10 10 10 10 11 12 12 12 13 13 13 13 14 14 12 10 10 13 18 22 26 33 40 43 42 40 41 43 45 47 48 49 49 49 48 48 48 48 47 46 44 43 43 43 44 43 44 44 43 42 41 41 41 42 42 43 41 39 39 39
11 10 10 9 9 9 9 10 11 12 12 13 14 15 15 16 16 15 12 8 6 6 9 12 15 20 25 26 25 24 26 30 35 39 41 42 44 47 49 50 50 50 48 47 46 45 45 44 44 44 45 44 43 43 43 43 44 45 45 43 41 40 40
8 8 8 8 8 8 8 9 9 10 11 12 12 14 15 15 16 15 14 13 11 10 10 12 11 9 10 10 10 10 10 12 15 18 20 21 22 26 32 38 43 48 52 51 49 48 46 44 42 42 43 44 44 43 41 39 38 37 38 38 38 39 39
8 8 8 8 8 8 8 8 8 9 9 10 10 12 13 14 16 16 16 16 16 13 12 12 13 13 13 12 11 11 11 11 12 13 14 15 15 14 15 18 23 30 37 39 39 38 36 34 33 33 35 36 35 32 30 29 28 27 28 29 30 32 34
9 9 10 10 11 11 10 10 9 9 9 9 10 10 11 13 16 18 18 17 17 17 17 16 16 17 16 14 14 14 14 14 15 15 16 17 18 17 15 13 14 18 21 22 23 22 21 22 22 22 23 24 23 22 24 25 25 25 26 25 25 26 27
11 11 12 12 13 13 13 13 12 12 12 11 11 11 11 12 14 16 17 17 17 18 21 22 22 21 19 17 16 16 17 18 18 17 16 17 18 20 19 16 17 21 23 24 23 22 21 22 22 20 22 24 23 23 24 25 26 26 26 26 26 26 25
15 14 14 14 14 15 15 15 15 14 14 14 13 13 13 13 13 14 15 16 16 17 19 20 20 20 19 18 17 17 16 17 17 17 17 18 19 21 22 22 23 26 27 27 26 26 25 25 25 24 25 25 26 26 26 26 26 27 27 27 28 29 29
17 17 16 16 16 16 16 17 16 16 16 15 15 15 15 15 16 16 16 16 16 17 18 18 19 19 19 18 18 18 17 18 18 19 19 20 20 21 22 23 24 25 26 26 26 26 26 26 26 26 26 26 27 28 28 28 28 28 29 30 31 32 33
19 19 18 18 17 17 17 17 18 18 17 17 17 17 17 18 18 18 18 18 18 18 18 19 20 20 20 20 19 19 19 20 20 21 21 22 22 23 24 24 25 25 26 27 27 28 28 28 28 28 29 29 29 29 30 31 31 32 33 34 35 36 37
Wind_Direction
199 197 198 197 200 203 203 205 206 205 203 197 192 192 187 180 177 178 176 173 171 170 170 172 173 172 171 170 170 171 172 172 171 169 167 161 153 147 140 128 111 99 97 99 100 100 109 127 139 145 149 151 154 158 162 168 173 178 184 190 196 203 208
198 195 196 195 196 199 201 206 208 207 208 203 196 194 193 187 182 182 181 179 177 175 174 175 176 176 176 176 175 177 178 178 177 178 176 170 163 158 151 137 122 102 91 96 104 108 118 134 150 155 156 159 162 165 169 173 179 184 192 198 205 211 215
198 193 195 194 193 196 199 204 210 210 209 208 203 198 197 195 189 185 185 184 182 181 179 179 180 180 180 181 181 182 184 183 183 185 184 183 182 180 179 173 159 133 106 113 123 128 135 147 164 171 172 175 176 177 177 179 183 186 192 199 206 212 216
200 195 195 193 193 194 195 200 208 211 210 210 209 203 201 200 196 192 190 189 188 186 185 184 184 185 185 185 186 187 190 190 191 194 196 198 199 199 202 205 207 205 207 205 175 166 167 168 179 187 188 189 190 192 191 189 189 189 191 197 202 207 211
204 198 197 196 194 194 194 197 205 211 212 211 211 209 205 203 202 200 197 195 193 192 190 189 191 191 191 191 192 193 195 197 199 203 206 209 211 212 216 222 229 232 239 246 231 205 193 188 191 194 196 197 198 199 199 199 198 196 196 199 203 207 211
211 202 198 200 197 194 195 196 202 210 213 213 212 211 208 206 206 206 205 202 199 197 195 195 197 198 197 197 199 199 199 201 204 206 211 216 219 221 226 232 239 244 248 251 245 230 216 207 204 201 199 200 200 201 201 201 201 201 201 203 205 208 213
216 209 201 201 199 198 198 198 201 207 212 213 212 211 210 207 207 208 209 208 205 203 201 201 202 202 202 203 204 204 204 205 208 210 213 218 222 226 231 237 244 250 253 253 248 239 231 223 214 209 205 202 201 202 203 203 203 203 204 204 208 211 214
216 213 205 201 201 200 201 201 203 205 210 214 213 212 212 212 209 209 211 211 210 208 207 206 206 206 207 208 209 209 210 211 213 215 218 222 225 230 235 240 246 251 253 250 246 240 237 235 227 218 212 208 205 205 206 208 208 208 209 210 213 218 220
215 215 207 200 200 202 202 204 206 206 209 213 214 212 212 214 214 212 212 212 213 213 211 211 211 210 210 212 213 214 215 216 218 220 223 227 230 234 239 243 245 249 249 245 241 238 237 240 237 230 221 215 212 212 211 213 215 215 214 215 219 224 227
215 217 212 202 199 201 203 205 207 208 208 211 214 214 212 214 217 217 215 214 215 216 216 216 215 215 215 216 217 218 219 220 222 224 227 230 233 237 240 243 244 245 244 240 237 237 239 242 242 239 232 225 220 218 218 219 221 223 222 222 225 228 233
212 216 216 208 201 201 204 207 209 209 210 212 213 214 214 214 216 219 220 218 217 218 219 220 220 219 219 220 221 222 223 224 226 228 230 232 234 237 239 241 241 240 240 238 237 240 243 244 244 242 239 235 230 227 226 226 228 230 232 233 236 238 242
208 213 216 210 203 203 205 207 209 210 211 213 213 214 215 215 216 218 221 223 222 221 221 222 223 223 223 223 224 226 228 229 231 232 234 235 235 237 238 238 238 238 238 238 240 243 245 245 245 244 242 239 238 235 234 235 236 237 239 241 244 247 248
206 213 216 210 202 204 206 206 208 210 212 213 214 214 215 216 216 217 219 222 225 225 224 225 225 226 226 225 226 229 231 232 234 235 236 237 237 237 238 238 238 239 239 240 243 244 245 245 243 243 242 241 240 239 238 238 239 241 243 244 247 249 251
211 213 218 215 208 206 207 207 207 209 212 213 213 214 216 217 218 218 219 221 224 227 228 228 229 230 229 229 229 230 233 235 237 238 238 238 239 239 240 240 241 242 242 243 245 245 245 244 243 242 241 240 239 239 239 240 241 243 244 245 247 249 251
221 214 216 216 213 210 207 206 207 208 211 212 212 213 215 217 219 221 221 221 223 226 230 231 233 234 234 234 235 235 235 236 238 241 242 242 242 242 242 243 244 246 247 247 248 247 246 246 246 244 242 242 241 240 241 242 245 247 249 251 252 253 255
226 221 217 215 214 213 209 206 206 208 211 212 212 212 212 214 218 221 223 224 224 225 228 230 232 234 236 237 238 238 238 239 240 242 245 246 246 245 244 244 246 247 249 250 251 251 249 248 248 246 245 244 244 244 245 247 249 252 256 257 257 258 259
227 225 223 218 215 215 212 206 205 207 210 213 213 212 212 212 214 217 221 225 226 226 228 230 230 232 234 235 237 237 237 239 240 243 246 248 249 249 247 246 246 247 248 250 250 251 250 250 249 248 248 247 247 248 249 251 254 259 262 263 263 264 263
224 223 222 221 218 217 214 208 205 207 209 212 215 214 214 214 214 214 217 221 225 227 229 231 232 233 234 234 235 236 236 238 239 241 244 247 249 250 251 250 249 248 249 249 249 250 250 250 250 250 250 250 250 250 250 251 253 256 260 263 264 265 264
220 217 218 219 218 218 215 209 206 210 211 212 216 217 218 218 216 216 218 219 221 225 228 230 232 234 236 237 237 237 237 237 238 239 241 243 246 248 249 250 250 250 250 250 250 250 251 252 252 253 253 253 253 253 253 253 253 254 256 259 261 262 263
220 210 208 210 213 217 215 206 203 209 212 213 217 219 219 221 221 219 220 220 220 222 226 229 232 234 235 237 239 239 239 239 239 239 240 241 243 245 246 248 248 249 250 251 252 252 252 253 253 254 255 255 256 256 256 257 256 256 257 260 261 263 264
230 211 206 205 207 212 213 206 203 208 210 211 217 220 221 223 225 223 223 223 222 222 225 229 231 233 235 237 238 239 240 242 243 243 243 243 244 245 247 248 249 250 250 251 252 253 254 254 254 254 255 256 257 257 257 258 258 259 260 262 263 265 266
247 217 209 205 203 205 207 204 203 208 211 211 215 220 222 224 226 226 225 225 225 225 226 229 231 233 235 236 238 240 241 243 246 247 248 248 248 248 249 250 252 253 253 253 254 255 257 259 258 257 255 255 256 258 258 259 261 262 262 263 263 264 265
266 236 211 205 203 202 203 204 207 210 212 213 216 220 222 224 227 227 227 227 228 228 229 230 232 234 237 238 240 242 243 244 246 248 249 250 250 250 251 252 254 255 256 257 257 256 257 259 260 260 258 256 256 257 259 260 262 263 262 263 263 263 263
272 262 232 200 198 199 203 209 213 215 216 218 222 226 227 228 230 231 231 230 230 231 233 234 234 235 237 240 242 243 244 245 246 248 250 252 252 252 252 253 254 256 257 257 258 257 256 256 257 259 260 258 256 256 257 258 260 262 263 263 264 264 264
271 257 254 202 190 194 199 204 207 211 215 219 223 228 231 232 234 235 236 234 233 234 234 235 236 236 237 239 243 245 245 245 246 248 250 252 252 253 253 254 254 254 254 255 257 259 259 258 257 257 259 258 257 256 257 257 258 260 263 264 265 265 266
285 261 244 232 212 204 201 195 192 199 210 216 218 222 229 234 237 238 239 238 238 240 240 240 239 238 238 239 242 245 246 246 246 246 249 252 253 253 254 256 257 256 254 254 256 259 261 260 259 258 257 258 258 258 258 258 258 260 262 264 265 266 266
308 295 271 252 243 238 229 220 212 208 208 215 219 221 226 232 235 236 237 238 236 236 239 240 239 238 239 239 240 241 243 245 246 247 248 250 250 250 251 254 257 258 257 255 255 257 259 260 261 260 259 258 258 259 259 260 261 262 262 263 264 265 266
308 311 301 286 271 263 260 259 256 253 246 239 237 234 230 230 230 232 237 240 238 232 230 231 231 234 236 236 236 238 241 244 247 248 249 249 249 249 250 251 253 255 257 256 256 257 258 259 259 260 260 259 258 259 260 261 263 264 263 263 264 265 266
280 292 298 297 290 281 275 274 275 274 271 267 265 257 245 238 234 233 238 243 242 238 233 228 226 227 230 232 235 239 241 244 246 249 251 252 252 252 251 250 250 252 253 254 255 256 257 258 258 258 259 259 258 260 262 262 263 265 267 266 265 264 265
266 271 276 283 287 283 280 278 278 278 275 273 274 273 264 256 253 255 256 247 234 229 229 228 227 227 228 232 238 243 245 246 248 251 254 256 257 256 255 252 251 250 251 253 255 257 259 260 260 260 259 258 259 262 264 264 264 266 267 266 263 263 264
254 258 259 263 269 270 271 271 271 273 274 276 278 280 281 277 271 269 269 262 239 216 212 212 211 214 219 223 228 236 241 242 244 246 251 256 259 258 256 254 252 252 254 256 258 259 260 264 265 262 259 257 260 263 265 265 265 265 265 264 261 261 262
239 241 245 251 257 261 265 268 268 268 269 273 276 276 279 282 278 274 270 264 267 275 265 248 237 234 237 235 231 235 243 246 247 248 252 260 265 263 258 255 254 255 257 258 260 260 261 264 265 261 257 256 258 259 258 258 260 262 262 261 260 259 259
236 241 247 252 256 260 265 268 272 272 269 268 266 264 267 272 273 274 275 273 274 279 281 275 273 277 282 283 278 275 275 271 268 266 269 278 286 285 275 266 260 257 255 254 254 255 256 257 256 254 253 253 254 255 256 257 261 265 266 265 262 258 256
246 252 258 261 263 267 271 275 279 281 278 275 271 264 263 266 268 270 272 272 271 269 271 277 282 283 285 286 285 285 282 275 272 274 281 288 292 291 289 291 288 280 271 264 261 259 258 258 257 256 257 258 258 260 263 266 269 270 271 270 268 264 264
258 261 263 266 267 267 269 273 278 281 283 281 279 275 269 264 266 268 269 267 266 265 269 275 278 279 279 278 277 277 278 277 278 280 281 283 282 281 281 280 277 276 277 278 279 277 272 269 268 267 266 267 268 266 265 265 266 267 267 267 267 265 266
263 264 266 268 269 268 267 269 271 276 280 280 279 277 274 269 266 264 264 263 262 262 265 269 272 273 272 271 270 270 270 270 270 269 266 264 265 268 271 270 267 269 274 278 281 282 280 277 276 274 271 270 271 270 269 268 268 269 270 270 269 269 267
261 263 264 264 264 264 264 263 264 266 269 272 273 273 271 269 266 263 260 259 258 258 260 262 264 267 267 266 266 267 267 266 266 266 266 266 265 266 269 270 271 273 276 278 280 280 280 279 278 276 273 271 270 269 269 269 269 269 270 270 270 270 270
256 259 261 262 260 259 258 258 261 262 263 264 266 268 267 266 265 263 261 258 256 255 256 257 259 261 262 262 263 263 264 266 266 266 267 267 268 268 268 269 270 271 272 274 275 276 277 278 277 277 276 274 272 271 270 270 269 269 269 269 269 269 270
Height
5896 5898 5900 5902 5904 5905 5907 5909 5910 5912 5913 5914 5916 5917 5919 5920 5921 5923 5924 5925 5926 5928 5929 5931 5933 5934 5935 5936 5938 5939 5940 5941 5941 5942 5943 5944 5945 5946 5947 5947 5948 5948 5948 5949 5949 5949 5949 5949 5950 5950 5950 5951 5951 5952 5953 5954 5954 5955 5956 5956 5957 5957 5958
5893 5896 5899 5900 5902 5904 5906 5907 5909 5911 5913 5914 5915 5917 5918 5920 5921 5922 5924 5925 5926 5928 5929 5931 5932 5934 5935 5936 5937 5938 5939 5940 5941 5942 5943 5944 5945 5946 5946 5947 5948 5948 5949 5949 5949 5950 5950 5950 5950 5950 5951 5951 5952 5953 5953 5954 5955 5955 5956 5956 5957 5957 5957
5892 5895 5897 5899 5900 5902 5904 5906 5908 5910 5912 5914 5915 5916 5917 5919 5920 5922 5923 5925 5926 5927 5929 5930 5932 5933 5935 5936 5937 5938 5939 5940 5941 5942 5943 5944 5945 5945 5946 5947 5947 5948 5949 5949 5950 5950 5950 5950 5951 5951 5951 5952 5952 5953 5954 5954 5955 5955 5956 5956 5957 5957 5957
5891 5894 5896 5897 5899 5900 5902 5904 5907 5909 5911 5913 5914 5915 5916 5918 5920 5921 5923 5924 5926 5927 5928 5930 5932 5933 5934 5936 5937 5938 5939 5940 5941 5942 5943 5944 5944 5945 5946 5947 5947 5948 5949 5949 5950 5950 5951 5951 5951 5951 5952 5952 5953 5953 5954 5954 5955 5955 5955 5956 5956 5957 5957
5889 5892 5894 5896 5897 5898 5900 5903 5905 5908 5910 5912 5913 5915 5916 5918 5919 5921 5922 5924 5925 5927 5928 5930 5931 5933 5934 5935 5936 5937 5939 5940 5941 5942 5942 5943 5944 5945 5945 5946 5947 5947 5948 5949 5950 5950 5951 5951 5951 5951 5952 5952 5953 5953 5953 5954 5954 5955 5955 5956 5956 5956 5956
5886 5889 5892 5895 5897 5898 5899 5901 5904 5906 5908 5910 5912 5914 5916 5917 5919 5920 5922 5923 5924 5926 5928 5929 5930 5931 5933 5934 5935 5937 5938 5939 5940 5941 5942 5942 5943 5944 5945 5946 5946 5947 5947 5948 5949 5950 5950 5951 5951 5951 5952 5952 5952 5953 5953 5954 5954 5954 5955 5955 5955 5955 5956
5883 5887 5891 5893 5896 5897 5898 5899 5901 5904 5906 5908 5911 5913 5915 5916 5918 5919 5921 5922 5924 5925 5926 5927 5929 5930 5932 5933 5934 5935 5937 5938 5939 5940 5940 5941 5942 5943 5944 5945 5945 5946 5946 5947 5948 5948 5949 5950 5950 5951 5951 5952 5952 5953 5953 5953 5954 5954 5954 5955 5955 5955 5955
5880 5884 5888 5892 5894 5895 5897 5898 5899 5902 5904 5907 5910 5912 5914 5915 5917 5918 5919 5921 5923 5924 5925 5926 5927 5929 5930 5932 5933 5934 5935 5937 5938 5938 5939 5940 5941 5942 5943 5943 5944 5945 5945 5946 5947 5947 5948 5949 5949 5950 5951 5951 5952 5952 5953 5953 5954 5954 5954 5954 5954 5954 5954
5877 5880 5884 5889 5891 5893 5895 5897 5898 5900 5903 5906 5908 5910 5912 5914 5915 5917 5918 5920 5921 5922 5924 5925 5926 5928 5929 5930 5931 5933 5934 5935 5936 5937 5938 5939 5940 5941 5941 5942 5943 5944 5944 5945 5946 5946 5947 5948 5948 5949 5950 5950 5951 5952 5952 5953 5953 5953 5954 5954 5954 5954 5954
5875 5877 5881 5885 5887 5890 5892 5895 5896 5899 5901 5904 5906 5908 5910 5912 5913 5915 5916 5918 5920 5921 5922 5924 5925 5927 5928 5929 5930 5931 5932 5933 5934 5935 5936 5937 5938 5939 5940 5941 5942 5942 5943 5944 5945 5945 5946 5946 5947 5948 5948 5949 5950 5951 5951 5952 5952 5952 5953 5953 5953 5953 5953
5872 5875 5878 5881 5885 5887 5890 5893 5895 5898 5900 5902 5904 5906 5908 5909 5911 5913 5915 5916 5918 5919 5921 5923 5924 5925 5926 5927 5928 5929 5930 5931 5932 5933 5934 5935 5936 5938 5939 5939 5940 5941 5942 5942 5943 5944 5945 5945 5946 5946 5947 5948 5948 5949 5950 5950 5950 5951 5951 5951 5951 5952 5952
5870 5872 5875 5879 5883 5885 5888 5891 5894 5896 5898 5900 5902 5904 5906 5907 5909 5911 5913 5914 5916 5918 5920 5921 5922 5923 5924 5926 5927 5928 5929 5930 5931 5932 5933 5934 5935 5936 5937 5938 5939 5939 5940 5941 5942 5942 5943 5944 5944 5945 5945 5946 5947 5947 5948 5948 5948 5949 5949 5949 5950 5950 5950
5869 5870 5873 5877 5881 5883 5885 5888 5891 5894 5896 5898 5900 5902 5903 5905 5907 5909 5911 5913 5914 5916 5918 5919 5920 5922 5923 5924 5925 5926 5927 5929 5930 5931 5932 5933 5934 5935 5936 5936 5937 5938 5938 5939 5940 5941 5941 5942 5942 5943 5944 5944 5945 5945 5946 5946 5946 5946 5947 5947 5948 5948 5948
5868 5869 5871 5875 5878 5880 5883 5886 5888 5891 5893 5895 5898 5899 5901 5903 5905 5907 5909 5911 5913 5914 5916 5917 5919 5920 5921 5923 5924 5925 5926 5927 5928 5929 5930 5931 5932 5933 5934 5935 5935 5936 5937 5938 5938 5939 5939 5940 5941 5941 5942 5942 5943 5943 5943 5944 5944 5944 5945 5945 5945 5946 5946
5865 5867 5868 5871 5874 5877 5880 5883 5885 5888 5890 5892 5895 5897 5898 5901 5903 5905 5907 5908 5910 5912 5914 5915 5916 5918 5919 5921 5922 5923 5924 5925 5927 5928 5929 5930 5931 5932 5932 5933 5934 5934 5935 5936 5936 5937 5938 5938 5939 5940 5940 5940 5941 5941 5942 5942 5942 5943 5943 5944 5944 5944 5944
5863 5864 5866 5868 5870 5873 5876 5879 5882 5884 5887 5889 5892 5894 5896 5898 5901 5903 5904 5906 5907 5909 5911 5912 5914 5915 5917 5918 5919 5920 5921 5923 5924 5925 5926 5928 5929 5930 5931 5932 5932 5933 5933 5934 5935 5935 5936 5937 5937 5938 5938 5939 5939 5939 5940 5940 5941 5942 5942 5942 5942 5943 5943
5861 5862 5864 5866 5867 5870 5873 5877 5879 5882 5884 5887 5889 5891 5894 5896 5898 5900 5902 5903 5904 5906 5908 5909 5911 5912 5914 5915 5916 5917 5918 5920 5921 5922 5924 5925 5926 5927 5929 5929 5930 5931 5931 5932 5933 5933 5934 5934 5935 5935 5936 5937 5937 5938 5938 5939 5941 5942 5941 5940 5940 5941 5941
5858 5859 5861 5863 5865 5867 5871 5874 5877 5879 5882 5885 5887 5889 5892 5893 5895 5898 5899 5901 5902 5903 5905 5906 5908 5910 5911 5912 5912 5914 5915 5917 5918 5919 5921 5922 5923 5925 5926 5927 5928 5929 5929 5930 5930 5931 5932 5932 5933 5933 5934 5934 5935 5936 5937 5938 5940 5940 5938 5938 5938 5938 5938
5856 5857 5858 5861 5863 5865 5868 5872 5876 5879 5881 5883 5885 5888 5890 5891 5893 5895 5897 5898 5899 5901 5903 5904 5905 5907 5908 5909 5910 5911 5913 5914 5915 5916 5918 5919 5920 5921 5923 5924 5925 5926 5927 5927 5928 5928 5929 5930 5930 5931 5931 5932 5933 5933 5934 5936 5936 5936 5935 5935 5936 5935 5935
5854 5854 5855 5858 5861 5862 5864 5870 5875 5878 5879 5881 5883 5885 5888 5889 5890 5892 5894 5895 5897 5899 5901 5901 5903 5904 5905 5907 5908 5909 5911 5911 5912 5913 5914 5915 5916 5918 5919 5920 5921 5922 5923 5924 5925 5926 5926 5927 5927 5928 5929 5929 5930 5931 5932 5933 5933 5932 5932 5932 5932 5933 5933
5852 5852 5852 5855 5858 5860 5862 5867 5872 5874 5875 5878 5880 5882 5884 5886 5887 5888 5890 5892 5894 5896 5898 5899 5900 5901 5902 5903 5905 5906 5908 5909 5910 5911 5912 5913 5914 5915 5916 5917 5918 5918 5919 5920 5921 5922 5923 5924 5925 5925 5926 5926 5927 5928 5929 5930 5929 5928 5929 5929 5929 5930 5930
5851 5851 5851 5852 5854 5856 5859 5863 5867 5869 5872 5874 5876 5877 5879 5881 5883 5884 5886 5888 5890 5892 5894 5895 5896 5898 5899 5900 5901 5903 5905 5907 5908 5909 5909 5910 5911 5912 5913 5914 5914 5915 5916 5917 5918 5919 5920 5921 5922 5922 5922 5922 5923 5924 5925 5926 5925 5925 5925 5926 5926 5926 5926
5850 5851 5851 5851 5851 5854 5858 5861 5864 5866 5869 5871 5872 5874 5876 5877 5879 5881 5883 5885 5887 5889 5890 5891 5893 5895 5896 5898 5899 5901 5903 5904 5904 5905 5906 5907 5908 5909 5909 5910 5911 5912 5913 5914 5914 5915 5916 5917 5918 5918 5918 5919 5919 5919 5920 5922 5922 5921 5922 5922 5922 5922 5922
5850 5851 5851 5850 5851 5855 5859 5862 5864 5865 5867 5869 5871 5872 5873 5875 5877 5878 5880 5882 5884 5885 5886 5887 5889 5891 5893 5895 5897 5898 5899 5900 5901 5902 5903 5904 5905 5905 5906 5907 5908 5909 5910 5910 5910 5911 5911 5911 5912 5913 5914 5915 5915 5915 5915 5917 5917 5917 5917 5917 5917 5918 5918
5850 5851 5852 5852 5853 5856 5858 5860 5861 5863 5865 5867 5868 5869 5870 5872 5874 5875 5877 5879 5880 5881 5882 5883 5885 5888 5890 5891 5892 5894 5895 5896 5897 5898 5899 5900 5901 5902 5903 5903 5904 5905 5905 5906 5906 5907 5907 5907 5908 5908 5909 5911 5911 5911 5912 5912 5912 5912 5913 5913 5913 5913 5913
5849 5850 5851 5853 5854 5855 5857 5858 5859 5860 5862 5864 5865 5866 5867 5869 5870 5871 5873 5874 5876 5877 5878 5880 5882 5885 5887 5888 5889 5891 5892 5893 5893 5894 5896 5897 5898 5898 5898 5899 5901 5901 5901 5901 5902 5903 5903 5903 5903 5904 5905 5906 5907 5907 5908 5908 5908 5908 5909 5909 5909 5909 5909
5847 5848 5849 5851 5853 5854 5855 5856 5857 5858 5859 5861 5862 5863 5864 5865 5866 5867 5868 5870 5871 5873 5873 5875 5877 5880 5882 5883 5884 5886 5888 5888 5888 5890 5891 5893 5894 5894 5893 5895 5897 5897 5896 5896 5897 5899 5899 5899 5899 5900 5901 5901 5902 5902 5903 5904 5904 5905 5905 5905 5905 5905 5904
5847 5847 5848 5849 5851 5852 5853 5854 5855 5856 5857 5858 5859 5860 5861 5862 5863 5864 5864 5865 5866 5867 5866 5867 5870 5874 5876 5877 5878 5881 5883 5884 5884 5885 5886 5887 5889 5890 5889 5890 5892 5891 5890 5891 5893 5894 5895 5895 5895 5896 5896 5897 5897 5897 5898 5899 5900 5900 5900 5900 5900 5900 5900
5847 5848 5848 5848 5849 5850 5851 5852 5854 5855 5855 5856 5857 5858 5858 5859 5859 5861 5861 5861 5862 5862 5862 5862 5864 5867 5870 5872 5874 5876 5878 5879 5880 5881 5882 5883 5885 5886 5885 5885 5885 5884 5884 5886 5888 5889 5890 5890 5891 5891 5891 5892 5893 5893 5893 5894 5895 5895 5895 5895 5895 5895 5895
5846 5847 5847 5847 5848 5849 5850 5851 5852 5853 5854 5854 5855 5856 5856 5856 5857 5858 5859 5859 5858 5858 5859 5860 5861 5862 5865 5868 5870 5871 5873 5874 5875 5876 5877 5877 5878 5879 5879 5879 5879 5879 5879 5881 5882 5884 5885 5885 5886 5886 5887 5887 5888 5888 5889 5889 5890 5890 5890 5890 5890 5890 5890
5844 5845 5846 5846 5847 5847 5848 5849 5850 5851 5852 5852 5853 5853 5854 5854 5854 5855 5857 5857 5857 5857 5857 5858 5859 5859 5862 5864 5866 5866 5867 5868 5869 5871 5871 5871 5871 5871 5872 5872 5873 5874 5875 5876 5877 5879 5880 5880 5881 5881 5882 5882 5883 5883 5884 5884 5884 5884 5883 5884 5884 5884 5885
5842 5843 5844 5845 5845 5846 5847 5848 5849 5849 5850 5851 5851 5852 5852 5852 5852 5853 5855 5855 5855 5855 5855 5856 5857 5858 5860 5861 5861 5862 5863 5863 5864 5865 5866 5866 5865 5865 5865 5866 5868 5869 5870 5871 5873 5874 5875 5875 5876 5876 5876 5877 5878 5878 5878 5878 5878 5878 5878 5878 5878 5878 5879
5840 5841 5842 5843 5844 5844 5845 5846 5847 5847 5848 5849 5850 5850 5851 5850 5850 5851 5853 5853 5853 5853 5853 5854 5855 5856 5858 5859 5859 5860 5860 5861 5862 5862 5862 5862 5862 5862 5862 5862 5863 5864 5865 5866 5867 5868 5869 5870 5870 5871 5872 5872 5873 5874 5874 5874 5874 5874 5873 5873 5873 5873 5873
5839 5840 5841 5841 5842 5843 5843 5844 5845 5846 5846 5847 5847 5848 5849 5849 5849 5850 5851 5852 5852 5852 5851 5852 5853 5854 5855 5857 5857 5857 5858 5858 5859 5859 5860 5859 5859 5859 5860 5861 5861 5861 5862 5862 5862 5864 5865 5866 5866 5867 5868 5868 5868 5869 5869 5869 5869 5869 5869 5868 5868 5868 5868
5837 5838 5838 5839 5840 5841 5841 5842 5843 5843 5844 5845 5845 5846 5847 5847 5847 5848 5848 5849 5850 5850 5850 5851 5851 5852 5853 5854 5854 5855 5855 5855 5855 5856 5857 5857 5857 5856 5857 5859 5860 5860 5860 5860 5860 5861 5862 5862 5862 5863 5864 5864 5864 5865 5865 5865 5865 5865 5865 5864 5863 5864 5864
5834 5835 5836 5837 5838 5838 5839 5840 5840 5841 5842 5842 5843 5843 5844 5845 5845 5846 5846 5847 5848 5848 5849 5849 5849 5850 5851 5852 5852 5853 5853 5853 5853 5853 5854 5855 5856 5855 5855 5857 5857 5857 5857 5857 5856 5857 5858 5858 5858 5859 5859 5860 5860 5861 5861 5861 5861 5860 5860 5859 5859 5859 5859
5830 5831 5832 5833 5834 5835 5836 5837 5838 5838 5839 5839 5840 5841 5841 5842 5842 5843 5844 5844 5845 5846 5846 5847 5847 5847 5848 5849 5849 5850 5850 5850 5851 5851 5851 5852 5852 5853 5853 5853 5853 5853 5853 5853 5853 5853 5853 5854 5854 5854 5855 5855 5856 5856 5856 5856 5856 5856 5856 5855 5855 5855 5854
5827 5828 5829 5830 5831 5832 5833 5834 5834 5835 5836 5836 5837 5838 5838 5839 5839 5840 5840 5841 5842 5842 5843 5844 5844 5844 5845 5845 5846 5846 5846 5847 5847 5847 5848 5848 5848 5849 5849 5849 5849 5849 5849 5849 5849 5849 5849 5849 5849 5849 5850 5850 5850 5851 5851 5851 5851 5851 5851 5851 5851 5850 5850